Miscellaneous Local Product
Issued by NWS North Platte, NE

Home | Current Version | Previous Version | Graphics & Text | Print | Product List | Glossary On
Versions: 1 2 3 4 5 6 7 8 9 10 11 12 13 14 15 16 17 18 19 20 21 22 23 24 25 26 27 28 29 30 31 32 33 34 35 36 37 38 39 40 41 42 43 44 45 46 47 48 49 50
000
AXUS43 KLBF 280210
MISLBF


WESTERN AND NORTH CENTRAL NEBRASKA HOURLY WEATHER ROUNDUP
NATIONAL WEATHER SERVICE NORTH PLATTE NE
800 PM CST TUE JAN 27 2015

***STATIONS NOT REPORTING VARIABLES SUCH AS SKY/WEATHER OR
PRESSURE ARE PROVIDED BY THE NEBRASKA DEPARTMENT OF
ROADS...RAWS...AND APRS NETWORKS...AND ARE NOT UNDER
NATIONAL WEATHER SERVICE QUALITY CONTROL***

...OBSERVATIONS IN AND NEAR THE EASTERN PANHANDLE OF NEBRASKA...

CITY           SKY/WX    TMP DP  RH WIND       PRES   REMARKS
PINE RIDGE     CLOUDY    39  29  67 CALM      29.90S
CHADRON        CLOUDY    42  33  70 SW6       29.90S
ALLIANCE       CLOUDY    39  30  70 W9        29.95R WCI  33
SIDNEY         MOCLDY    40  30  67 W8        29.98S WCI  34
WHITECLAY        N/A     37  27  67 E6          N/A  WCI  32
CRESCENT LAKE    N/A     55  27  33 CALM        N/A
LISCO            N/A     45  25  45 W5          N/A
LEWELLEN         N/A     41  27  56 CALM        N/A
$$

...OBSERVATIONS IN NORTH CENTRAL NEBRASKA...

CITY           SKY/WX    TMP DP  RH WIND       PRES   REMARKS
VALENTINE      CLEAR     43  32  65 CALM      29.87F
THEDFORD       CLEAR     51  33  50 SW3       29.91S
AINSWORTH      CLEAR     41  31  68 S8        29.88F
O`NEILL        CLEAR     45  36  71 SE8       29.91F
ORD            CLEAR     43  32  65 SE5       29.91S
BROKEN BOW     CLEAR     35  28  75 CALM      29.91S
BROWNLEE         N/A     58  27  30 S3          N/A
VALENTINE NWR    N/A     46  26  45 CALM        N/A
SPRINGVIEW       N/A     38  31  76 CALM        N/A
HALSEY           N/A     59  28  30 S3          N/A
BREWSTER         N/A     40  30  68 CALM        N/A
ROSE             N/A     49  37  61 E6          N/A
NEWPORT          N/A     43  36  75 S7          N/A
SARGENT          N/A     44  35  70 CALM        N/A
COMSTOCK         N/A     51  33  50 S12         N/A
CHAMBERS         N/A     41  32  69 SE6         N/A
EWING            N/A     42  35  77 SE3         N/A
$$

...OBSERVATIONS IN SOUTHWEST NEBRASKA AND FAR NORTHEAST COLORADO...

CITY           SKY/WX    TMP DP  RH WIND       PRES   REMARKS
WRAY           FAIR      60  28  29 CALM      29.95F
HOLYOKE        FAIR      46  30  53 E5        29.96S
IMPERIAL       MOCLDY    51  27  39 CALM      29.94S
OGALLALA       CLOUDY    42  31  65 W3        29.93F
NORTH PLATTE   PTCLDY    38  28  67 CALM      29.92F
MCCOOK         PTCLDY    52  31  44 S5        29.92S
LEXINGTON      CLEAR     47  32  56 SE3       29.92S
BRADY            N/A     44  29  55 CALM        N/A
GOTHENBURG       N/A     50  28  42 N3          N/A
CALLAWAY         N/A     46  30  54 SE3         N/A
$$

...NORTH PLATTE AREA...

CITY           SKY/WX    TMP DP  RH WIND       PRES   REMARKS
AIRPORT        PTCLDY    38  28  67 CALM      29.92F
DOWNTOWN         N/A     49  29  45 CALM        N/A
$$

...SOME WEATHER OBSERVATIONS FROM AROUND THE REGION...

CITY           SKY/WX    TMP DP  RH WIND       PRES   REMARKS
DENVER         PTCLDY    53  33  46 W6        30.02R
LARAMIE        PTCLDY    39  21  48 S3        30.13S
CHEYENNE       CLEAR     45  21  38 W12       30.06F
SCOTTSBLUFF      N/A    N/A N/A N/A MISG      29.97R
RAPID CITY     CLOUDY    47  29  49 NW5       29.84S
PIERRE         CLEAR     42  34  73 SE7       29.84S
WINNER         FAIR      47  36  65 SE13      29.85F
SIOUX FALLS    CLEAR     36  33  89 SE8       29.98S WCI  30
OMAHA          CLEAR     44  30  57 SE12      30.05S
GRAND ISLAND   CLEAR     46  33  60 SE8       29.95S
KANSAS CITY    CLEAR     45  32  60 SE14      30.09S
WICHITA        CLEAR     59  36  42 S13       29.98F
HAYS           CLEAR     57  27  30 S6        29.94F
LIBERAL        MOCLDY    55  30  38 SW12      30.04F
GOODLAND       CLOUDY    53  29  39 S9        29.98S
$$



USA.gov is the U.S. government's official web portal to all federal, state and local government web resources and services.